Retour au catalogue

BREEZE-M R/B

ActifMEO
NORAD 37952·ROCKET BODY·🇷🇺 Russia

Lancé Dec 11, 2011 depuis Baikonur Cosmodrome

Loading…

Prochains Passages (prochaines 24 heures)

TLE

FraisSource: Space-Track

Époque: Sep 14, 2026, 10:48 UTC

1 37952U 11074C   26257.45006461 -.00000181  00000-0  00000-0 0  9998
2 37952  11.6121  49.6112 0800204 182.1256  10.3752  0.89625407 47945

Suivez BREEZE-M R/B en temps réel avec AllMySat

Download on the App Store